Flag for Western Sahara Weather past 2 weeks in El Aaiún, Western Sahara

Now
61 °F

Passing clouds.


Feels Like: 61 °F
Forecast: 57 / 75 °F
Wind: 3 mph from East

Location: Laayoune/Hassan Isl

Current Time: Dec 18, 2014 at 2:28:52 AM

Latest Report: Dec 18, 2014 at 2:00 AM


Visibility: 5 mi

Pressure: 30.21 "Hg

Humidity: 88%

Dew point: 57 °F

Location of El AaiúnLocation

Historic Weather in El Aaiún — Graph

°F

El Aaiún temperature yesterday

Maximum temperature yesterday: 72 °F (at 3:00 PM)
Minimum temperature yesterday: 57 °F (at 12:00 AM)
Average temperature yesterday: 63 °F

Past Weeks' High & Low Weather Summary

 TemperatureHumidityPressure
High77 °F (Dec 8, 3:00 PM)100% (Dec 10, 3:00 AM)30.33 "Hg (Dec 10, 3:00 AM)
Low50 °F (Dec 12, 6:00 AM)20% (Dec 12, 4:00 PM)29.98 "Hg (Dec 3, 6:00 AM)
Average63 °F66%30.20 "Hg
* Reported Dec 3 1:00 AM — Dec 18 1:00 AM, El Aaiún, Weather by CustomWeather, © 2014

Note: Actual official high and low records may vary slightly from our data, if they occured in-between our weather recording intervals... More about our weather records

Advertising

El Aaiún weather history for previous 24 hours

 ConditionsComfort  
Time TempWeatherWind HumidityBarometerVisibility
1:00 AM
Dec 18
61 °FPartly cloudy.5 mph88%30.21 "Hg5 mi
12:00 AM61 °FPassing clouds.8 mph88%30.21 "Hg5 mi
11:00 PM
Dec 17
61 °FPassing clouds.5 mph88%30.21 "HgN/A
10:00 PM61 °FPassing clouds.9 mph88%30.21 "HgN/A
9:00 PM63 °FPassing clouds.9 mph77%30.24 "HgN/A
8:00 PM63 °FPassing clouds.15 mph77%30.21 "Hg5 mi
7:00 PM64 °FScattered clouds.16 mph73%30.21 "HgN/A
6:00 PM66 °FScattered clouds.17 mph64%30.18 "HgN/A
5:00 PM68 °FScattered clouds.21 mph64%30.18 "HgN/A
4:00 PM72 °FScattered clouds.17 mph53%30.18 "HgN/A
3:00 PM72 °FScattered clouds.21 mph57%30.18 "HgN/A
2:00 PM70 °FScattered clouds.25 mph64%30.18 "HgN/A
1:00 PM70 °FScattered clouds.21 mph60%30.21 "HgN/A
12:00 PM66 °FPartly sunny.25 mph73%30.24 "Hg4 mi
11:00 AM68 °FPartly sunny.21 mph69%30.27 "HgN/A
10:00 AM64 °FScattered clouds.16 mph83%30.24 "HgN/A
9:00 AM61 °FScattered clouds.12 mph88%30.24 "Hg5 mi
8:00 AM57 °FPassing clouds.2 mph94%30.24 "HgN/A
7:00 AM57 °FPassing clouds.6 mph100%30.21 "Hg5 mi
6:00 AM57 °FPassing clouds.7 mph100%30.21 "Hg5 mi
5:00 AM57 °FPassing clouds.7 mph94%30.21 "HgN/A
4:00 AM57 °FPassing clouds.6 mph94%30.21 "HgN/A
2:00 AM57 °FPassing clouds.7 mph88%30.24 "HgN/A
Weather by CustomWeather, © 2014

See weather overviewHow to use our weather pages